CZ-6A DEB, 54550

Orbit data source: Space-Track

CZ-6A DEB, 54550 is space debris in SSO originally from a launch on Fri, 11 Nov 2022 UTC launched from the Taiyaun Space Center, China (TSC). Debris objects in space refer to the collection of defunct objects orbiting the Earth. Examples of debris include non-operational satellites, rocket bodies, and fragments generated from explosions, collisions, or faulty payload assembly.

Loading next visibility...
Identifier
54550, 2022-151LA
Orbit
SSO
Country
Flag of CNCN / PRC
Related business
Manufacturer
SAST
Mission
Spacecraft
Bus & Motor
Unknown
Mass
Unknown
Launch date (UTC)
2022-11-11 (3 years ago)
Launch vehicle
Unknown
Launch site
Taiyaun Space Center, China (TSC)
Object type
Payload
Rocket body
Debris
Shape & HBR
Unknown shape, 0.2 m
Radar Cross Section
Small (<0.1 m²)

Expand to show TLE details & history
Last TLE update: 8 hours ago

TLE from 8 hours ago
0 CZ-6A DEB
1 54550U 22151LA  26130.36102174  .00000768  00000-0  26587-3 0  9998
2 54550  98.6650 168.2380 0066501  65.0598 295.7479 14.37297989182591
Epoch: 2026-05-10T08:39Z
TLE epoch observation values (Epoch: 2026-05-10T08:39:52.278Z)
Latitude
0.00001°
Longitude
170.10496°
Altitude
749.99 km
Speed
7.49 km/s
True Right ascension
11h 12m 57s
True Declination
0° 00' 00"
Sunlit
Object was in full shadow at epoch
Visualization orbit readout
Latitude
Unknown
Longitude
Unknown
Altitude
Unknown
Speed
Unknown
Apparent Right ascension
Unknown
Apparent Declination
Unknown
Sunlit
N/A
Visualization observer readout
Local Sidereal Time
01:08:21
Azimuth
Unknown
Elevation
Unknown
Doppler factor
Unknown
Orbital elements
Apogee altitude
812.073 km
Perigee altitude
717.073 km
Semi-major axis
7,142.71 km
Eccentricity
0.00665
Inclination
98.665°
RAAN
168.238°
Arg. of periapsis
65.0598°
True anomaly
295.05904°
Mean anomaly
295.7479°
Eccentric anomaly
295.40372°
Mean motion
3.59541 °/min
Orbital period
100.13 mins
BSTAR
0.00026587
Loading maneuver chart data...
Computing Atmospheric mass density...
Loading historical data...
Loading historical data...
Loading historical data...
Loading historical data...
Loading historical data...
Loading historical data...
Loading historical data...

Documentation

Showing up to 5 results
|